This is the latest recevied weather packets stored in our database for station/object WX2NJ-13. If no packets are shown the sender has not sent any weather packets the latest 10 day(s).
| Time | Temp. | Humidity | Pressure | Rain* | Wind** | Luminosity | Snow |
|---|---|---|---|---|---|---|---|
| 1778033963 | 18.89° C | 66% | 1012.7 hPa | 0 mm | 1.34 m/s, 188° | - | - |
| 1778033665 | 18.89° C | 66% | 1012.7 hPa | 0 mm | 1.79 m/s, 163° | - | - |
| 1778033363 | 18.89° C | 66% | 1012.8 hPa | 0 mm | 2.24 m/s, 242° | - | - |
| 1778033065 | 18.89° C | 66% | 1012.7 hPa | 0 mm | 2.24 m/s, 249° | - | - |
| 1778032766 | 18.89° C | 66% | 1012.7 hPa | 0 mm | 2.24 m/s, 228° | - | - |
| 1778032465 | 18.89° C | 66% | 1012.7 hPa | 0 mm | 2.24 m/s, 207° | - | - |
| 1778032166 | 18.89° C | 66% | 1012.6 hPa | 0 mm | 1.34 m/s, 203° | - | - |
| 1778031867 | 18.89° C | 66% | 1012.6 hPa | 0 mm | 1.79 m/s, 232° | - | - |
| 1778031566 | 18.89° C | 66% | 1012.6 hPa | 0 mm | 1.79 m/s, 191° | - | - |
| 1778031267 | 18.89° C | 65% | 1012.5 hPa | 0 mm | 1.79 m/s, 194° | - | - |
| 1778030969 | 18.89° C | 65% | 1012.7 hPa | 0 mm | 3.13 m/s, 172° | - | - |
| 1778030667 | 19.44° C | 65% | 1012.6 hPa | 0 mm | 2.24 m/s, 191° | - | - |
| 1778030369 | 19.44° C | 65% | 1012.5 hPa | 0 mm | 1.79 m/s, 180° | - | - |
| 1778030070 | 19.44° C | 64% | 1012.4 hPa | 0 mm | 1.34 m/s, 174° | - | - |
| 1778029769 | 19.44° C | 64% | 1012.3 hPa | 0 mm | 2.24 m/s, 156° | - | - |
| 1778029470 | 19.44° C | 63% | 1012.3 hPa | 0 mm | 2.24 m/s, 152° | - | - |
| 1778029172 | 19.44° C | 62% | 1012.3 hPa | 0 mm | 1.79 m/s, 181° | - | - |
| 1778028870 | 19.44° C | 61% | 1012.4 hPa | 0 mm | 2.24 m/s, 188° | - | - |
| 1778028572 | 19.44° C | 61% | 1012.3 hPa | 0 mm | 2.24 m/s, 153° | - | - |
| 1778028273 | 19.44° C | 60% | 1012.3 hPa | 0 mm | 1.79 m/s, 155° | - | - |
| 1778027972 | 19.44° C | 60% | 1012.2 hPa | 0 mm | 2.24 m/s, 152° | - | - |
| 1778027673 | 19.44° C | 59% | 1012.2 hPa | 0 mm | 1.34 m/s, 187° | - | - |
| 1778027374 | 19.44° C | 59% | 1012.1 hPa | 0 mm | 1.79 m/s, 143° | - | - |
| 1778027073 | 19.44° C | 59% | 1012 hPa | 0 mm | 1.79 m/s, 159° | - | - |
| 1778026774 | 19.44° C | 59% | 1012 hPa | 0 mm | 3.13 m/s, 203° | - | - |
* Rain latest hour (hover to see other rain measurements)
** Current wind speed in m/s (hover to see current wind gust speed)